FENGYUN 3H (65815 NORAD) Tracking and Keplerian Element Data

This shows tracking and keplerian element data for the satellite.

Feedback or suggestion? Click here.




ElementValue
Catalog65815
NameFENGYUN 3H
Epoch Orbit1197
Epoch Day354.12783751
Epoch Year2025
RAAN293.558
Inclination98.6595
Eccentricity7.3E-05
Argument of Perigee105.0613
Mean Anonmoly255.0644
Mean Motion14.19906496
Decay Rate3.6E-07
L11 65815U 25219A 25354.12783751 .00000036 00000+0 37330-4 0 9995
L22 65815 98.6595 293.5580 0000730 105.0613 255.0644 14.19906496 11970



Live tracking and technical data element details for FENGYUN 3H (NORAD 65815). FENGYUN 3H can be tracked NOW for your location showing map with azimuth and elevation plus other details from your city location.







IsCatalogInMostPopularTable: catalog: 65815, numindb: 18
Update: records affected: 1



GetName: 65815 FENGYUN 3H

Hit Count: updated at: Mon, 20 Apr 2026 09:53:49 GMT